PulseSat

PulseSat

COSMOS 2426 (717)

Last updated on March 21, 2019, 3:13 a.m. UTC

1 29671U 06062B   19078.73494346  .00000041  00000-0  10000-3 0  9993
2 29671  65.1657 283.3192 0016731 158.9224 200.0905  2.13103035 95181
UTC
Height (km)
Latitude
Longitude
Inclination
Orbital Period

Next 30 passes for location: Hong Kong

Rise time Rise Azimuth (degrees) Set time Set Azimuth (degrees) Duration Max altitude (degrees)

No matching passes for this satellites

PulseSat

PulseSat is the new satellites software and hardware trackering solution by Pulsely.
Satellite Two Line Element Set source: US Air Force Space Command

Download PulseSat for iOS
© 2017 Pulsely Limited